DW8108 Weather Reports


time (UTC)temp
C
wind
direction
speed
KPH
gust
KPH
rain 1hr
cm
rain 24hr
cm
rain mn
cm
humidity
%
barometer
mb
20260503213059 16 0.0 30.6 0.00 0.25 0.25 55 1009.0
20260503211559 17 0.0 37.0 0.00 0.25 0.25 54 1008.9
20260503210056 16 0.0 32.2 0.00 0.25 0.25 57 1009.2
20260503204555 17 0.0 40.2 0.00 0.25 0.25 54 1009.4
20260503203052 17 0.0 40.2 0.00 0.25 0.25 56 1009.4
20260503201550 16 0.0 40.2 0.00 0.25 0.25 58 1009.8
20260503200051 15 0.0 38.6 0.00 0.25 0.25 64 1010.0
20260503194543 14 0.0 29.0 0.00 0.25 0.25 75 1010.4
20260503193043 12 0.0 22.5 0.00 0.25 0.25 85 1010.8
20260503191536 11 0.0 22.5 0.00 0.25 0.25 90 1011.2
20260503190033 10 0.0 12.9 0.05 0.25 0.25 91 1011.8
20260503184529 10 0.0 6.4 0.13 0.25 0.25 89 1012.5
20260503183026 10 0.0 6.4 0.13 0.25 0.25 87 1013.1
20260503181523 10 0.0 8.0 0.20 0.25 0.25 85 1013.7
20260503180026 10 0.0 6.4 0.18 0.18 0.18 84 1014.0
20260503174526 10 0.0 16.1 0.13 0.13 0.13 82 1014.0
20260503173023 10 0.0 14.5 0.13 0.13 0.13 80 1014.2
20260503171522 10 0.0 29.0 0.05 0.05 0.05 74 1014.5
20260503081509 5 0.0 8.0 0.00 0.00 0.00 75 1015.8
20260503071506 5 0.0 9.7 0.00 0.00 0.00 74 1015.9
20260503060122 5 0.0 12.9 0.00 0.00 0.00 77 1016.6
20260503054601 5 0.0 11.3 0.00 0.00 0.00 78 1016.7
20260503053056 5 0.0 8.0 0.00 0.00 0.00 79 1016.8
20260503051554 5 0.0 8.0 0.00 0.00 0.00 80 1016.9
20260503050053 5 0.0 6.4 0.00 0.00 0.00 81 1017.0
20260503044550 5 0.0 4.8 0.00 0.00 0.00 82 1017.0
20260503043050 5 0.0 6.4 0.00 0.00 0.00 80 1016.9
20260503041554 5 0.0 6.4 0.00 0.00 0.00 80 1017.0
20260503040050 5 0.0 6.4 0.00 0.00 0.00 83 1017.2
20260503034556 5 0.0 8.0 0.00 0.00 0.00 85 1017.3
20260503033056 5 0.0 6.4 0.00 0.00 0.00 85 1017.2
20260503031547 6 0.0 4.8 0.00 0.00 0.00 86 1017.2
20260503030048 6 0.0 4.8 0.00 0.00 0.00 85 1017.3
20260503024545 6 0.0 0.0 0.00 0.00 0.00 84 1017.3
20260503023046 6 0.0 0.0 0.00 0.00 0.00 83 1017.4
20260503021545 7 0.0 0.0 0.00 0.00 0.00 81 1017.3
20260503020044 8 0.0 3.2 0.00 0.00 0.00 79 1017.3
20260503014543 8 0.0 3.2 0.00 0.00 0.00 71 1017.2
20260503013051 8 0.0 1.6 0.00 0.00 0.00 64 1017.1
20260503011544 10 0.0 1.6 0.00 0.00 0.00 59 1017.1
20260503010107 10 0.0 4.8 0.00 0.00 0.00 59 1017.0
20260503004541 11 0.0 9.7 0.00 0.00 0.00 56 1017.0
20260503003040 11 0.0 4.8 0.00 0.00 0.00 53 1017.0
20260503001539 11 0.0 4.8 0.00 0.00 0.00 50 1017.0
20260503000039 11 0.0 9.7 0.00 0.00 0.00 47 1017.1
20260502234540 11 0.0 14.5 0.00 0.00 0.00 46 1017.1
20260502233036 12 0.0 14.5 0.00 0.00 0.00 44 1017.2
20260502231536 12 0.0 17.7 0.00 0.00 0.00 44 1017.1
20260502230035 12 0.0 8.0 0.00 0.00 0.00 41 1017.2
20260502224534 13 0.0 9.7 0.00 0.00 0.00 42 1017.2
20260502223034 13 0.0 11.3 0.00 0.00 0.00 38 1017.3
20260502221533 13 0.0 12.9 0.00 0.00 0.00 41 1017.3
20260502220033 13 0.0 16.1 0.00 0.00 0.00 41 1017.4
20260502214537 13 0.0 12.9 0.00 0.00 0.00 42 1017.4